sat.trackr.live / text

‹ back to catalog

ONEWEB-0193

NORAD 48238 · 2021-031AE

PAYLOAD ACTIVE UNKNOWN

§ Identity

Operator
Country
UK
Launch date
2021-04-25
Launch site
VOSTO
Launch vehicle
Mass (kg)
RCS (m²)

Purposes: comms

External: N2YO · Heavens-Above · Gunter

§ Orbital elements

Epoch: 2026-05-25T03:47:40.438752Z

Period
109.55 min
Inclination
87.8940°
Eccentricity
0.0001863
Mean motion
13.14501246 rev/d
Perigee alt
1,204.4 km
Apogee alt
1,207.2 km
Semi-major
7,583.9 km
B*
2.3191e-4
RAAN
294.2915°
Arg perigee
84.3547°
Mean anomaly
275.7795°
Rev number
24,528

§ Raw data

ONEWEB-01931 48238U 21031AE  26145.15810693  .00000099  00000+0  23191-3 0  99992 48238  87.8940 294.2915 0001863  84.3547 275.7795 13.14501246245284

JSON: /api/v1/satellites/48238 · /tle

For live sub-satellite position, see the globe view (requires WebGL).

§ Visibility from observer

Set your observer location to see the next 7 days of passes ≥ 10°. The values pass through the URL so the page stays shareable.

No JS? Fill the form by hand. The geolocation button needs JavaScript.